Regional Weather Roundup
Issued by NWS

Home | Current Version | Previous Version | Text Only | Print | Product List | Glossary Off
Versions: 1 2 3 4 5 6 7 8 9 10 11 12 13 14 15 16 17 18 19 20 21 22 23 24 25 26 27 28 29 30 31 32 33 34 35 36 37 38 39 40 41 42 43 44 45 46 47 48 49 50

493
ASUS43 KBIS 162010
RWRND

NORTH DAKOTA REGIONAL WEATHER ROUNDUP
NATIONAL WEATHER SERVICE BISMARCK ND
200 PM CST TUE JAN 16 2018

NOTE: "FAIR" INDICATES FEW OR NO CLOUDS BELOW 12,000 FEET WITH NO
SIGNIFICANT WEATHER AND/OR OBSTRUCTIONS TO VISIBILITY.


NDZ001>003-009>011-017-162100-
NORTHWEST NORTH DAKOTA

CITY           SKY/WX    TMP DP  RH WIND       PRES   REMARKS
WILLISTON      SUNNY      6  -8  52 SW7       30.32F WCI  -6
MINOT          CLOUDY    12  -6  44 S16       30.35F WCI  -5
MINOT AFB      CLOUDY    11  -5  48 S10       30.34F WCI  -2
$$

NDZ018>021-031>035-040>046-162100-
SOUTHWEST NORTH DAKOTA

CITY           SKY/WX    TMP DP  RH WIND       PRES   REMARKS
BISMARCK       SUNNY      6  -9  50 S8        30.50F WCI  -7
DICKINSON      SUNNY     14  -4  44 S14       30.29F WCI  -1
GARRISON         N/A      6  -7  54 S10       30.40F WCI  -9
HETTINGER ARPT SUNNY     12  -4  48 S12       30.36F WCI  -2
$$

NDZ004>008-012>016-024-026-027-054-162100-
NORTHEAST NORTH DAKOTA

CITY           SKY/WX    TMP DP  RH WIND       PRES   REMARKS
GRAND FORKS    PTSUNNY    2  -6  69 S14       30.56F WCI -16
GRND FRKS AFB  PTSUNNY    5  -7  57 S12       30.55F WCI -10
DEVILS LAKE    FAIR       7  -5  57 S10       30.47F WCI  -8
$$

NDZ022-023-025-028>030-036>039-047>053-162100-
SOUTHEAST NORTH DAKOTA

CITY           SKY/WX    TMP DP  RH WIND       PRES   REMARKS
FARGO          PTSUNNY    1  -8  66 S12       30.64F WCI -16
JAMESTOWN      CLOUDY     6  -6  57 SW15      30.51F WCI -12
$$





USA.gov is the U.S. government's official web portal to all federal, state and local government web resources and services.